NOAA 16 DEB, 41080

Orbit data source: Space-Track

NOAA 16 DEB, 41080 is space debris in SSO originally from a launch on Thu, 21 Sep 2000 UTC launched from the Air Force Western Test Range (AFWTR). Debris objects in space refer to the collection of defunct objects orbiting the Earth. Examples of debris include non-operational satellites, rocket bodies, and fragments generated from explosions, collisions, or faulty payload assembly.

Loading next visibility...
NOAA 16 DEB details
Identifier
41080, 2000-055AP
Orbit
SSO
Last TLE update1 month ago
Origin
Flag of USNOAA (US)
ManufacturerUnknown
MissionSpacecraft
Bus & MotorUnknown
MassUnknown
Launch date (UTC)
2000-09-21 (24 years ago)
Launch vehicleUnknown
Launch site
Air Force Western Test Range (AFWTR)
Object type
Payload
Rocket body
Debris
Shape & HBRUnknown
Radar Cross SectionSmall (<0.1 m²)

Expand to show TLE details & history

TLE from 1 month ago
0 NOAA 16 DEB
1 41080U 00055AP  24362.09403315  .00006760  00000-0  31616-2 0  9993
2 41080  98.5804  49.8952 0005228 349.6903  10.4166 14.20559821468538
Epoch: 2024-12-27T02:15Z
Definitive object data (Epoch: 2024-12-27T02:15:24.464Z)
Latitude-0.00002°
Longitude-80.02074°
Altitude822.676 km
Speed7.444 km/s
True Right ascension03h 19m 34s
True Declination0° 00' 00"
Sunlit
Object was in full shadow at TLE epoch
Visualization TLE readout
Latitude-19.72139°
Longitude125.71444°
Altitude827.923 km
Speed7.439 km/s
Apparent Right ascension13h 57m 50s
Apparent Declination-53° 00' 23"
Sunlit
Object is in daylight
Visualization observer readout
Local Sidereal Time20:06:42
Azimuth225.172° WSW
Elevation-32.028°
Doppler factor1
Orbital elements
Apogee altitude824.375 km
Perigee altitude816.848 km
Semi-major axis7,198.749 km
Eccentricity0.0005228
Inclination98.5804°
RAAN49.8952°
Arg. of periapsis349.6903°
True anomaly10.42744°
Mean anomaly10.4166°
Eccentric anomaly10.42202°
Mean motion3.55351 °/min
BSTAR0.0031616
Orbital period101.31 mins
Loading maneuver chart data...
Loading historical data...
Loading historical data...
Loading historical data...
Loading historical data...
Loading historical data...
Loading historical data...
Loading historical data...

NOAA 16 DEB Visibility forecast

Observer location: undefined°, undefined

Span
Click to sort rows by Start time (UTC) header in descending order
Start Az.
Max El. time (UTC)
Max El. Az.
Max El.
End time (UTC)
End Az.
8 mins2025-01-26 02:24:52.406Z121.629° SE2025-01-26 02:28:52.406Z68.086° E25.631°2025-01-26 02:32:52.406Z12.695° NNE
7 mins2025-01-26 04:05:52.406Z209.236° SW2025-01-26 04:08:52.406Z261.451° W30.227°2025-01-26 04:12:52.406Z323.298° NNW
9 mins2025-01-26 16:22:52.406Z11.231° NNE2025-01-26 16:26:52.406Z318.922° NNW44.713°2025-01-26 16:31:52.406Z198.005° SSW
|